Showing default

OPS 1117 (TRANSIT 12), 2119

Orbit data source: Space-Track

OPS 1117 (TRANSIT 12), 2119 is a payload satellite owned by USN BuWeps (US) in LEO that was launched on Sat, 26 Mar 1966 UTC via an SCOUT A launch vehicle from the Air Force Western Test Range (AFWTR). Payload-class satellites include a variety of spacecraft equipped with specific instruments for various scientific and technological missions. These include communications satellites like Starlink; space stations such as the ISS; scientific satellites like the Hubble; Earth observation satellites from companies like Planet Labs, Umbra, and HawkEye 360; GPS; miniature CubeSats for education and research; and military/defense satellites.

Loading next visibility...
Identifier
2119, 1966-024A
Orbit
LEO
Country
Flag of USUS
Related business
Manufacturer
APL
Mission
Defense Navigation
Bus & Motor
TRANSIT 5, Unknown motor
Mass
51 kg wet, 51 kg dry
Launch date (UTC)
1966-03-26 (59 years ago)
Launch vehicle
SCOUT A
Launch site
Air Force Western Test Range (AFWTR)
Object type
Payload
Rocket body
Debris
Shape & HBR
Oct Cyl + 4 Pan + 1 Rod, Unknown HBR
Radar Cross Section
7.565 m², Large (>1 m²)

Expand to show TLE details & history
Last TLE update: 1 day ago

TLE from 1 day ago
0 OPS 1117 (TRANSIT 12)
1 02119U 66024A   25261.03088548  .00000172  00000-0  15386-3 0  9999
2 02119  89.6057  99.7780 0147421 147.0554 213.9906 13.75297479977776
Epoch: 2025-09-18T00:44Z
TLE epoch observation values (Epoch: 2025-09-18T00:44:28.505Z)
Latitude
-0.00001°
Longitude
91.4609°
Altitude
1,074.061 km
Speed
7.27 km/s
True Right ascension
06h 39m 06s
True Declination
0° 00' 00"
Sunlit
Object was in daylight at epoch
Visualization orbit readout
Latitude
Unknown
Longitude
Unknown
Altitude
Unknown
Speed
Unknown
Apparent Right ascension
Unknown
Apparent Declination
Unknown
Sunlit
N/A
Visualization observer readout
Local Sidereal Time
18:28:21
Azimuth
Unknown
Elevation
Unknown
Doppler factor
Unknown
Orbital elements
Apogee altitude
1,086.065 km
Perigee altitude
869.186 km
Semi-major axis
7,355.763 km
Eccentricity
0.01474
Inclination
89.6057°
RAAN
99.778°
Arg. of periapsis
147.0554°
True anomaly
213.06044°
Mean anomaly
213.9906°
Eccentric anomaly
213.5241°
Mean motion
3.44034 °/min
Orbital period
104.64 mins
BSTAR
0.00015386
Loading maneuver chart data...
Computing Atmospheric mass density...
Loading historical data...
Loading historical data...
Loading historical data...
Loading historical data...
Loading historical data...
Loading historical data...
Loading historical data...

Documentation

Showing up to 5 results
|